�������l�o���
Date,Time,MP-1(��Sv/h),MP-2(��Sv/h),MP-3(��Sv/h),MP-4(��Sv/h),MP-5(��Sv/h),MP-6(��Sv/h),MP-7(��Sv/h),MP-8(��Sv/h),����,����(m/s),���J
2017/06/12,00:00,1.016,1.620,1.078,1.919,1.333,0.537,0.985,0.909,�k,4.6,��
2017/06/12,00:10,1.015,1.618,1.078,1.920,1.330,0.538,0.986,0.910,�k,3.9,��
2017/06/12,00:20,1.015,1.617,1.077,1.919,1.333,0.539,0.984,0.908,�k�k��,3.7,��
2017/06/12,00:30,1.015,1.619,1.079,1.919,1.335,0.539,0.984,0.910,�k�k��,3.2,��
2017/06/12,00:40,1.014,1.619,1.078,1.915,1.331,0.538,0.986,0.908,�k�k��,3.3,��
2017/06/12,00:50,1.015,1.617,1.077,1.919,1.331,0.537,0.985,0.910,�k��,3.3,��
2017/06/12,01:00,1.014,1.619,1.078,1.919,1.333,0.537,0.983,0.910,�k��,2.8,��
2017/06/12,01:10,1.015,1.617,1.078,1.917,1.333,0.540,0.986,0.909,�k�k��,2.9,��
2017/06/12,01:20,1.016,1.618,1.078,1.920,1.332,0.539,0.987,0.909,�k��,2.5,��
2017/06/12,01:30,1.015,1.619,1.077,1.917,1.331,0.537,0.986,0.910,�k��,2.3,��
2017/06/12,01:40,1.014,1.616,1.078,1.917,1.333,0.540,0.985,0.907,�k��,2.2,��
2017/06/12,01:50,1.014,1.618,1.078,1.919,1.331,0.539,0.986,0.908,�k��,1.9,��
2017/06/12,02:00,1.013,1.618,1.078,1.918,1.333,0.539,0.985,0.909,���k��,1.7,��
2017/06/12,02:10,1.014,1.618,1.078,1.917,1.333,0.540,0.983,0.907,���k��,1.9,��
2017/06/12,02:20,1.014,1.617,1.078,1.916,1.333,0.540,0.986,0.908,��,1.7,��
2017/06/12,02:30,1.013,1.617,1.081,1.918,1.333,0.538,0.985,0.909,��,2.5,��
2017/06/12,02:40,1.014,1.616,1.076,1.919,1.330,0.539,0.985,0.909,���k��,2.3,��
2017/06/12,02:50,1.014,1.615,1.078,1.917,1.331,0.538,0.984,0.908,�k��,3.3,��
2017/06/12,03:00,1.014,1.617,1.079,1.918,1.327,0.540,0.984,0.909,�k��,4.6,��
2017/06/12,03:10,1.015,1.616,1.078,1.917,1.330,0.540,0.986,0.910,�k��,4.5,��
2017/06/12,03:20,1.015,1.617,1.080,1.919,1.332,0.537,0.983,0.908,�k��,4.7,��
2017/06/12,03:30,1.014,1.618,1.079,1.919,1.329,0.539,0.986,0.908,�k��,5.1,��
2017/06/12,03:40,1.013,1.618,1.080,1.919,1.332,0.538,0.985,0.907,�k��,5.1,��
2017/06/12,03:50,1.014,1.616,1.077,1.919,1.328,0.536,0.984,0.908,�k�k��,6.1,��
2017/06/12,04:00,1.013,1.617,1.080,1.920,1.331,0.538,0.984,0.910,�k�k��,5.8,��
2017/06/12,04:10,1.012,1.617,1.080,1.920,1.331,0.537,0.983,0.909,�k�k��,6.6,��
2017/06/12,04:20,1.012,1.620,1.078,1.916,1.331,0.537,0.983,0.908,�k�k��,6.0,��
2017/06/12,04:30,1.014,1.615,1.078,1.920,1.331,0.538,0.984,0.909,�k�k��,4.3,��
2017/06/12,04:40,1.013,1.618,1.077,1.919,1.331,0.537,0.985,0.907,�k�k��,3.8,��
2017/06/12,04:50,1.012,1.616,1.077,1.919,1.329,0.537,0.984,0.908,�k�k��,3.3,��
2017/06/12,05:00,1.014,1.617,1.078,1.917,1.332,0.538,0.983,0.907,�k�k��,3.1,��
2017/06/12,05:10,1.015,1.617,1.079,1.920,1.329,0.537,0.984,0.909,�k�k��,3.6,��
2017/06/12,05:20,1.013,1.616,1.077,1.916,1.329,0.537,0.983,0.908,�k�k��,4.1,��
2017/06/12,05:30,1.014,1.618,1.080,1.919,1.332,0.538,0.986,0.908,�k�k��,4.8,��
2017/06/12,05:40,1.013,1.618,1.078,1.916,1.330,0.536,0.985,0.907,�k��,3.7,��
2017/06/12,05:50,1.012,1.618,1.081,1.918,1.330,0.537,0.984,0.907,�k��,3.0,��
2017/06/12,06:00,1.013,1.618,1.080,1.919,1.332,0.538,0.984,0.909,�k��,2.5,��
2017/06/12,06:10,1.014,1.619,1.079,1.919,1.330,0.537,0.985,0.908,�k�k��,2.5,��
2017/06/12,06:20,1.015,1.617,1.078,1.919,1.334,0.538,0.985,0.909,�k�k��,2.9,��
2017/06/12,06:30,1.016,1.612,1.081,1.918,1.332,0.538,0.987,0.907,�k�k��,3.2,��
2017/06/12,06:40,1.014,1.615,1.078,1.920,1.330,0.536,0.984,0.909,�k,2.8,��
2017/06/12,06:50,1.015,1.616,1.081,1.921,1.329,0.536,0.987,0.908,�k�k��,2.9,��
2017/06/12,07:00,1.015,1.615,1.081,1.921,1.328,0.537,0.986,0.911,�k�k��,3.0,��
2017/06/12,07:10,1.017,1.614,1.079,1.920,1.330,0.537,0.986,0.909,�k�k��,3.4,��
2017/06/12,07:20,1.014,1.613,1.081,1.921,1.332,0.536,0.984,0.909,�k��,3.0,��
2017/06/12,07:30,1.013,1.615,1.082,1.921,1.331,0.534,0.984,0.909,�k��,3.4,��
2017/06/12,07:40,1.009,1.615,1.080,1.919,1.331,0.534,0.984,0.907,�k��,3.6,��
2017/06/12,07:50,1.012,1.617,1.082,1.924,1.331,0.535,0.982,0.909,�k��,4.0,��
2017/06/12,08:00,1.013,1.615,1.079,1.923,1.330,0.534,0.984,0.909,�k�k��,3.6,��
2017/06/12,08:10,1.016,1.616,1.082,1.919,1.330,0.536,0.983,0.909,�k��,3.6,��
2017/06/12,08:20,1.013,1.618,1.079,1.922,1.329,0.534,0.983,0.908,�k��,3.9,��
2017/06/12,08:30,1.014,1.615,1.082,1.924,1.332,0.533,0.983,0.908,�k��,3.5,��
2017/06/12,08:40,1.012,1.620,1.078,1.922,1.332,0.536,0.984,0.908,�k��,4.2,��
2017/06/12,08:50,1.015,1.620,1.079,1.920,1.331,0.535,0.983,0.908,�k��,4.0,��
2017/06/12,09:00,1.015,1.617,1.078,1.922,1.332,0.536,0.982,0.906,�k��,4.4,��
2017/06/12,09:10,1.016,1.620,1.076,1.922,1.331,0.535,0.982,0.908,�k��,4.9,��
2017/06/12,09:20,1.017,1.619,1.078,1.923,1.332,0.536,0.984,0.906,�k��,4.8,��
2017/06/12,09:30,1.016,1.622,1.079,1.920,1.330,0.536,0.983,0.906,�k��,4.1,��
2017/06/12,09:40,1.016,1.619,1.076,1.922,1.333,0.538,0.983,0.907,�k�k��,5.3,��
2017/06/12,09:50,1.015,1.619,1.077,1.920,1.334,0.536,0.985,0.908,�k��,5.1,��
2017/06/12,10:00,1.014,1.618,1.079,1.924,1.337,0.537,0.984,0.905,�k��,3.5,��
2017/06/12,10:10,1.014,1.620,1.079,1.926,1.335,0.537,0.982,0.905,�k,2.3,��
2017/06/12,10:20,1.014,1.619,1.077,1.924,1.333,0.536,0.984,0.907,�k�k��,3.2,��
2017/06/12,10:30,1.013,1.619,1.077,1.922,1.334,0.537,0.982,0.908,�k��,2.8,�L
2017/06/12,10:40,1.013,1.619,1.078,1.924,1.332,0.536,0.983,0.904,�k�k��,3.2,��
2017/06/12,10:50,1.014,1.615,1.079,1.923,1.333,0.537,0.986,0.905,�k�k��,3.0,�L
2017/06/12,11:00,1.015,1.615,1.082,1.921,1.333,0.535,0.983,0.906,�k�k��,3.6,�L
2017/06/12,11:10,1.010,1.610,1.076,1.917,1.324,0.535,0.982,0.905,�k��,3.3,�L
2017/06/12,11:20,1.008,1.606,1.070,1.910,1.315,0.536,0.980,0.906,�k�k��,3.6,�L
2017/06/12,11:30,1.007,1.592,1.065,1.899,1.308,0.535,0.980,0.902,��,1.2,�L
2017/06/12,11:40,1.004,1.590,1.065,1.893,1.305,0.536,0.978,0.903,�k��,1.7,�L
2017/06/12,11:50,1.004,1.588,1.065,1.889,1.303,0.535,0.977,0.902,�k�k��,2.9,�L
2017/06/12,12:00,1.005,1.590,1.065,1.892,1.306,0.535,0.978,0.901,�k�k��,1.5,�L
2017/06/12,12:10,1.007,1.594,1.065,1.890,1.305,0.535,0.978,0.902,�k��,2.0,�L
2017/06/12,12:20,1.004,1.595,1.067,1.890,1.305,0.537,0.979,0.903,�k��,2.0,��
2017/06/12,12:30,1.007,1.594,1.066,1.890,1.304,0.537,0.979,0.906,�k�k��,2.5,��
2017/06/12,12:40,1.006,1.596,1.066,1.892,1.307,0.535,0.980,0.905,�k��,2.8,��
2017/06/12,12:50,1.006,1.593,1.065,1.897,1.307,0.535,0.980,0.904,�k��,2.9,��
2017/06/12,13:00,1.004,1.596,1.064,1.894,1.307,0.534,0.980,0.902,�k��,2.6,��
2017/06/12,13:10,1.008,1.597,1.062,1.889,1.306,0.534,0.981,0.903,�k��,3.5,��
2017/06/12,13:20,1.006,1.594,1.062,1.894,1.306,0.533,0.980,0.904,���k��,4.1,��
2017/06/12,13:30,1.006,1.596,1.064,1.890,1.307,0.533,0.980,0.904,�k��,2.9,�L
2017/06/12,13:40,1.002,1.592,1.061,1.886,1.306,0.533,0.979,0.903,�k��,2.9,�L
2017/06/12,13:50,1.004,1.589,1.057,1.889,1.299,0.532,0.979,0.902,�k��,2.8,�L
2017/06/12,14:00,1.003,1.587,1.058,1.883,1.294,0.533,0.977,0.902,�k��,2.3,�L
2017/06/12,14:10,1.003,1.586,1.057,1.885,1.297,0.533,0.977,0.902,�k��,2.5,��
2017/06/12,14:20,1.003,1.586,1.055,1.885,1.295,0.533,0.977,0.901,�k��,2.9,�L
2017/06/12,14:30,1.001,1.584,1.057,1.886,1.294,0.532,0.978,0.901,�k�k��,1.5,�L
2017/06/12,14:40,1.002,1.589,1.057,1.885,1.298,0.532,0.977,0.901,��,1.4,�L
2017/06/12,14:50,1.001,1.589,1.059,1.886,1.298,0.534,0.977,0.901,��,1.7,�L
2017/06/12,15:00,1.004,1.591,1.058,1.886,1.296,0.534,0.977,0.902,��,1.9,��
2017/06/12,15:10,1.001,1.592,1.058,1.886,1.295,0.531,0.978,0.901,��,0.6,�L
2017/06/12,15:20,1.000,1.590,1.058,1.886,1.293,0.533,0.973,0.900,�k,1.7,�L
2017/06/12,15:30,0.998,1.588,1.059,1.887,1.296,0.534,0.977,0.900,-,CALM,�L
2017/06/12,15:40,1.002,1.589,1.060,1.886,1.297,0.533,0.975,0.902,���쓌,0.6,��
2017/06/12,15:50,1.002,1.593,1.055,1.890,1.298,0.533,0.976,0.901,���쐼,1.5,��
2017/06/12,16:00,1.002,1.592,1.058,1.888,1.297,0.535,0.976,0.904,�쐼,2.3,��
2017/06/12,16:10,1.002,1.591,1.058,1.887,1.299,0.533,0.976,0.903,�쐼,2.0,��
2017/06/12,16:20,1.001,1.593,1.060,1.886,1.298,0.532,0.975,0.901,�쐼,1.9,�L
2017/06/12,16:30,1.003,1.593,1.059,1.885,1.295,0.532,0.975,0.901,�쐼,2.2,��
2017/06/12,16:40,1.002,1.594,1.058,1.888,1.301,0.529,0.976,0.904,�쐼,2.2,��
2017/06/12,16:50,1.002,1.590,1.057,1.889,1.298,0.530,0.976,0.903,���쐼,2.0,��
2017/06/12,17:00,1.001,1.589,1.062,1.888,1.299,0.531,0.977,0.902,�k��,0.6,��
2017/06/12,17:10,1.001,1.593,1.057,1.888,1.300,0.531,0.977,0.904,���k��,1.2,��
2017/06/12,17:20,1.000,1.592,1.063,1.887,1.298,0.533,0.975,0.902,�k��,0.9,��
2017/06/12,17:30,1.002,1.593,1.063,1.887,1.299,0.533,0.976,0.901,���k��,0.6,��
2017/06/12,17:40,1.004,1.595,1.063,1.889,1.301,0.533,0.977,0.903,��쐼,1.7,��
2017/06/12,17:50,1.001,1.596,1.060,1.890,1.299,0.532,0.977,0.902,��쓌,0.9,��
2017/06/12,18:00,1.004,1.599,1.062,1.891,1.299,0.533,0.975,0.905,���쐼,1.5,��
2017/06/12,18:10,1.003,1.592,1.060,1.891,1.299,0.532,0.978,0.903,��,1.5,��
2017/06/12,18:20,1.004,1.591,1.061,1.890,1.302,0.532,0.976,0.903,�쐼,1.1,��
2017/06/12,18:30,1.001,1.596,1.061,1.889,1.302,0.533,0.977,0.904,��,0.9,��
2017/06/12,18:40,1.001,1.593,1.061,1.889,1.303,0.532,0.975,0.903,�쐼,0.9,��
2017/06/12,18:50,1.004,1.596,1.063,1.887,1.302,0.533,0.976,0.902,�쓌,0.6,��
2017/06/12,19:00,1.002,1.594,1.060,1.890,1.300,0.534,0.979,0.902,-,CALM,��
2017/06/12,19:10,1.002,1.595,1.061,1.888,1.299,0.532,0.978,0.903,��,0.9,��
2017/06/12,19:20,1.003,1.595,1.058,1.888,1.300,0.532,0.978,0.903,��,0.9,��
2017/06/12,19:30,1.004,1.594,1.059,1.890,1.301,0.533,0.978,0.902,���쐼,1.4,��
2017/06/12,19:40,1.004,1.597,1.061,1.889,1.301,0.533,0.978,0.903,���쐼,1.9,��
2017/06/12,19:50,1.003,1.593,1.060,1.889,1.298,0.532,0.979,0.902,��,2.0,��
2017/06/12,20:00,1.002,1.594,1.060,1.888,1.303,0.532,0.980,0.904,��,1.5,��
2017/06/12,20:10,1.003,1.593,1.059,1.886,1.299,0.534,0.978,0.903,��,1.7,��
2017/06/12,20:20,1.002,1.595,1.061,1.888,1.302,0.532,0.979,0.903,��,0.6,��
2017/06/12,20:30,1.000,1.596,1.061,1.890,1.300,0.533,0.978,0.902,�k��,1.2,��
2017/06/12,20:40,1.000,1.596,1.059,1.889,1.301,0.533,0.978,0.903,�k�k��,2.3,��
2017/06/12,20:50,1.000,1.593,1.060,1.889,1.299,0.532,0.978,0.903,�k�k��,2.6,��
2017/06/12,21:00,1.000,1.597,1.060,1.888,1.301,0.532,0.980,0.904,�k,2.5,��
2017/06/12,21:10,1.001,1.596,1.058,1.887,1.299,0.533,0.979,0.903,�k,2.8,��
2017/06/12,21:20,1.000,1.592,1.058,1.889,1.299,0.531,0.979,0.902,�k,3.3,��
2017/06/12,21:30,0.998,1.593,1.059,1.889,1.301,0.531,0.978,0.902,�k,3.5,��
2017/06/12,21:40,1.001,1.593,1.060,1.890,1.298,0.532,0.978,0.904,�k�k��,3.2,��
2017/06/12,21:50,1.000,1.594,1.062,1.887,1.298,0.532,0.979,0.902,�k,2.6,��
2017/06/12,22:00,1.000,1.591,1.057,1.887,1.299,0.532,0.977,0.901,�k�k��,2.6,��
2017/06/12,22:10,1.001,1.592,1.059,1.887,1.296,0.532,0.977,0.902,�k��,2.3,��
2017/06/12,22:20,0.999,1.592,1.062,1.890,1.300,0.533,0.977,0.903,�k��,2.2,��
2017/06/12,22:30,0.999,1.590,1.059,1.888,1.299,0.532,0.978,0.901,�k��,1.5,��
2017/06/12,22:40,1.001,1.593,1.058,1.890,1.301,0.532,0.979,0.902,���k��,1.9,��
2017/06/12,22:50,1.000,1.593,1.059,1.886,1.300,0.531,0.977,0.900,�k�k��,1.7,��
2017/06/12,23:00,0.999,1.592,1.057,1.888,1.300,0.533,0.977,0.901,�k,1.7,��
2017/06/12,23:10,1.001,1.594,1.058,1.888,1.297,0.531,0.976,0.902,�k�k��,1.5,��
2017/06/12,23:20,1.001,1.591,1.058,1.887,1.301,0.531,0.977,0.902,�k,1.2,��
2017/06/12,23:30,1.000,1.592,1.058,1.890,1.299,0.532,0.974,0.902,�k��,2.0,��
2017/06/12,23:40,0.998,1.592,1.059,1.888,1.300,0.532,0.976,0.902,�k�k��,1.5,��
2017/06/12,23:50,0.999,1.591,1.058,1.889,1.299,0.531,0.976,0.901,�k,1.4,��
